[[{"header":{"parameterUnit":"m.s-1","parameterCategory":1,"la1":30.2991,"la2":30.254,"lo1":-89.0895,"lo2":-89.0444,"dy":0.0017,"dx":0.0017,"nx":28,"ny":28,"refTime":"2023-10-12T21:00:00:Z","depth":0,"parameterNumber":2,"parameterNumberName":"U-component_of_WINDS"},"data":[0,0,0,0,0,0,0,0,0,0,0,0,0,0,0,0,0,0,0,0,0,0,0,0,0,0,0,0,0,0,0,0,0,0,0,0,0,0,0,0,0,0,0,0,0,0,0,0,0,0,0,0,0,0,0,0,0,0,-0.7031,-0.7031,0,-0.7021,-0.7021,-0.7021,-0.7006,-0.7005,-0.7005,-0.7005,-0.6995,-0.6995,-0.6995,0,0,0,0,0,0,0,0,0,0,0,0,0,-0.7036,-0.7036,-0.7031,-0.7031,-0.7031,-0.7021,-0.7021,-0.7021,-0.7006,-0.7005,-0.7005,-0.7005,-0.6995,-0.6995,-0.6995,0,0,0,0,0,0,0,0,0,0,0,0,0,-0.7031,-0.7036,-0.7031,-0.7022,-0.7021,-0.7021,-0.7021,-0.7021,-0.7006,-0.7005,-0.7005,-0.7004,-0.6995,-0.6995,-0.6995,-0.7003,0,0,-0.6995,-0.6995,0,0,0,0,0,0,0,0,-0.7031,-0.7031,-0.7023,-0.7022,-0.7021,-0.7014,-0.7019,-0.7015,-0.7006,-0.7011,-0.7005,-0.7004,-0.7002,-0.7001,-0.7,-0.7002,-0.7002,-0.6995,-0.6995,-0.6995,-0.6995,0,0,0,0,0,0,0,-0.7031,-0.7031,-0.7027,-0.7023,-0.7022,-0.7018,-0.7017,-0.7018,-0.7009,-0.7011,-0.701,-0.7009,-0.7001,-0.7,-0.7,-0.7002,-0.6995,-0.6995,-0.6995,-0.6995,-0.701,-0.7011,0,0,0,0,0,0,-0.7033,-0.7031,-0.7027,-0.7027,-0.7025,-0.7018,-0.7017,-0.7017,-0.7009,-0.7007,-0.7009,-0.7008,-0.7,-0.7,-0.6999,-0.7009,-0.6995,-0.6995,-0.6995,-0.701,-0.7011,-0.7011,0,0,0,0,0,0,-0.7033,-0.7033,-0.7028,-0.7029,-0.7028,-0.7019,-0.7019,-0.7017,-0.7016,-0.7008,-0.7006,-0.701,-0.7,-0.6999,-0.7002,-0.7008,-0.6995,-0.6995,-0.701,-0.701,-0.7011,-0.7028,0,0,0,0,0,0,-0.7034,-0.7033,-0.7036,-0.7029,-0.7028,-0.7031,-0.7019,-0.7017,-0.7016,-0.7015,-0.7008,-0.7006,-0.7,-0.7002,-0.7002,-0.7008,-0.6995,-0.7009,-0.701,-0.7011,-0.7027,-0.7029,-0.7031,0,0,0,0,0,-0.7034,-0.7041,-0.7037,-0.7036,-0.7031,-0.7031,-0.7031,-0.7023,-0.7017,-0.702,-0.7014,-0.7007,-0.7007,-0.7003,-0.7002,-0.7008,-0.7009,-0.701,-0.7011,-0.7026,-0.7028,-0.7031,0,0,0,0,0,0,-0.705,-0.704,-0.7035,-0.704,-0.7037,-0.7029,-0.7033,-0.7026,-0.7024,-0.7023,-0.7013,-0.7011,-0.7016,-0.7012,-0.7007,-0.7016,-0.7007,-0.7008,-0.7018,-0.7021,-0.7023,-0.7024,-0.6995,0,0,0,0,0,-0.7054,-0.7055,-0.7046,-0.7052,-0.705,-0.7042,-0.7041,-0.7035,-0.7031,-0.703,-0.7024,-0.7021,-0.702,-0.702,-0.7019,-0.7025,-0.7024,-0.7029,-0.7031,-0.7033,-0.7034,-0.7038,-0.704,-0.7014,-0.7014,-0.7014,0,0,-0.7063,-0.7058,-0.7059,-0.7055,-0.7052,-0.7053,-0.7041,-0.7042,-0.7043,-0.703,-0.7033,-0.7028,-0.7024,-0.7028,-0.703,-0.7026,-0.7041,-0.7034,-0.7036,-0.7036,-0.7039,-0.7042,-0.7044,-0.7015,-0.7015,-0.7015,0,0,-0.708,-0.7075,-0.708,-0.7077,-0.7071,-0.7066,-0.7067,-0.7059,-0.7056,-0.7059,-0.7049,-0.7049,-0.7048,-0.7045,-0.7044,-0.7058,-0.7052,-0.7058,-0.707,-0.7073,-0.7075,-0.7077,-0.7083,-0.7086,-0.7059,-0.7059,-0.7059,0,-0.7092,-0.7093,-0.7083,-0.7085,-0.7084,-0.7072,-0.7076,-0.7074,-0.7068,-0.7068,-0.7062,-0.7061,-0.7056,-0.7061,-0.7064,-0.7063,-0.7064,-0.706,-0.7076,-0.7078,-0.7079,-0.7085,-0.7087,-0.706,-0.706,-0.706,-0.706,0,-0.7108,-0.7109,-0.7113,-0.7108,-0.7107,-0.7111,-0.7101,-0.7101,-0.7095,-0.709,-0.7092,-0.7086,-0.7084,-0.7084,-0.7078,-0.7088,-0.7085,-0.7078,-0.7069,-0.7083,-0.7088,-0.709,-0.7062,-0.7061,-0.7061,-0.7061,0,0,-0.7136,-0.7126,-0.7127,-0.7125,-0.7118,-0.7119,-0.7121,-0.7119,-0.7119,-0.7115,-0.7118,-0.7117,-0.711,-0.7108,-0.7101,-0.7104,-0.7117,-0.7097,-0.7096,-0.7102,-0.7128,-0.7135,-0.7137,-0.7112,-0.7112,-0.7112,-0.7129,0,-0.7153,-0.7157,-0.7148,-0.7155,-0.7156,-0.7143,-0.7145,-0.7141,-0.7136,-0.7136,-0.7129,-0.7129,-0.712,-0.7119,-0.7121,-0.7115,-0.7123,-0.7114,-0.7115,-0.7115,-0.7118,-0.714,-0.7147,-0.7163,-0.7131,-0.7131,-0.7131,0,-0.7173,-0.7171,-0.7177,-0.717,-0.717,-0.7172,-0.7169,-0.7169,-0.7164,-0.7159,-0.7157,-0.7149,-0.7151,-0.7141,-0.7143,-0.7137,-0.7137,-0.7134,-0.7134,-0.7135,-0.7125,-0.7143,-0.7168,-0.7171,-0.7134,-0.7134,-0.7134,0,-0.7195,-0.7193,-0.7197,-0.7195,-0.7186,-0.7188,-0.7184,-0.7178,-0.7177,-0.7174,-0.7174,-0.7171,-0.717,-0.7168,-0.7159,-0.7152,-0.7163,-0.7152,-0.716,-0.716,-0.7164,-0.7165,-0.7191,-0.7161,-0.7161,-0.7161,-0.7161,0,-0.7215,-0.722,-0.7206,-0.7209,-0.7214,-0.7203,-0.7208,-0.7203,-0.7198,-0.7199,-0.7187,-0.7189,-0.7176,-0.7176,-0.7169,-0.7173,-0.7172,-0.7169,-0.7168,-0.7171,-0.7172,-0.7172,-0.7171,-0.7162,-0.7162,-0.7162,-0.7162,0,-0.7242,-0.7232,-0.7236,-0.7226,-0.7224,-0.7228,-0.722,-0.7222,-0.7215,-0.7217,-0.7217,-0.7207,-0.7206,-0.7196,-0.7193,-0.7189,-0.7196,-0.7191,-0.7198,-0.7197,-0.7206,-0.7206,-0.7235,-0.7238,-0.7205,-0.7205,-0.7206,0,-0.7256,-0.726,-0.725,-0.725,-0.7247,-0.7247,-0.7246,-0.7235,-0.7234,-0.7228,-0.7231,-0.7229,-0.7227,-0.7227,-0.7219,-0.7217,-0.7213,-0.7223,-0.7213,-0.7216,-0.7215,-0.7215,-0.7216,-0.7226,-0.7226,-0.7227,-0.7227,0,-0.7283,-0.7278,-0.7277,-0.7275,-0.7274,-0.7271,-0.7267,-0.7268,-0.7255,-0.7255,-0.7254,-0.7253,-0.725,-0.7248,-0.7244,-0.724,-0.7232,-0.723,-0.7232,-0.7237,-0.7241,-0.724,-0.7205,-0.723,-0.7229,-0.7229,-0.7229,-0.7229,-0.7305,-0.7308,-0.7302,-0.7301,-0.7297,-0.7294,-0.7295,-0.7288,-0.7287,-0.7284,-0.7277,-0.7277,-0.7271,-0.7265,-0.7262,-0.7262,-0.7257,-0.7259,-0.726,-0.7262,-0.7264,-0.7239,-0.7261,-0.7261,-0.7261,-0.7261,-0.7261,0,-0.7333,-0.7328,-0.7328,-0.7323,-0.7322,-0.7313,-0.7309,-0.7309,-0.7309,-0.7304,-0.7302,-0.7301,-0.73,-0.7291,-0.7289,-0.729,-0.7286,-0.729,-0.7291,-0.729,-0.7268,-0.7267,-0.7293,-0.7293,-0.7293,-0.7293,-0.7293,-0.7293,-0.7348,-0.7352,-0.7346,-0.7348,-0.7343,-0.7344,-0.7342,-0.7339,-0.7335,-0.7334,-0.7333,-0.7327,-0.732,-0.7317,-0.7315,-0.7313,-0.7313,-0.7318,-0.7315,-0.7295,-0.7292,-0.7289,-0.7288,-0.7318,-0.7318,-0.7337,-0.7337,-0.7338]},{"header":{"parameterUnit":"m.s-1","parameterCategory":1,"la1":30.2991,"la2":30.254,"lo1":-89.0895,"lo2":-89.0444,"dy":0.0017,"dx":0.0017,"nx":28,"ny":28,"refTime":"2023-10-12T21:00:00:Z","depth":0,"parameterNumber":3,"parameterNumberName":"V-component_of_WINDS"},"data":[0,0,0,0,0,0,0,0,0,0,0,0,0,0,0,0,0,0,0,0,0,0,0,0,0,0,0,0,0,0,0,0,0,0,0,0,0,0,0,0,0,0,0,0,0,0,0,0,0,0,0,0,0,0,0,0,0,0,-5.6129,-5.613,0,-5.6218,-5.6219,-5.622,-5.6172,-5.617,-5.6167,-5.6165,-5.6252,-5.6256,-5.626,0,0,0,0,0,0,0,0,0,0,0,0,0,-5.5912,-5.5916,-5.6128,-5.613,-5.6131,-5.6218,-5.6219,-5.622,-5.6173,-5.617,-5.6167,-5.6164,-5.625,-5.6255,-5.6261,0,0,0,0,0,0,0,0,0,0,0,0,0,-5.6004,-5.5918,-5.6128,-5.6118,-5.6118,-5.6218,-5.6219,-5.6221,-5.6173,-5.617,-5.6166,-5.6163,-5.6248,-5.6255,-5.6262,-5.6376,0,0,-5.6282,-5.6285,0,0,0,0,0,0,0,0,-5.5999,-5.6012,-5.6118,-5.6119,-5.6119,-5.6181,-5.6175,-5.6273,-5.6174,-5.6152,-5.6165,-5.6161,-5.623,-5.6238,-5.6263,-5.638,-5.6384,-5.6283,-5.6287,-5.629,-5.6292,0,0,0,0,0,0,0,-5.5993,-5.6008,-5.6164,-5.612,-5.612,-5.6107,-5.6116,-5.6193,-5.621,-5.6154,-5.615,-5.6162,-5.623,-5.6257,-5.6265,-5.6385,-5.6283,-5.6289,-5.6293,-5.6296,-5.6602,-5.6606,0,0,0,0,0,0,-5.5987,-5.6003,-5.6161,-5.6166,-5.6049,-5.6114,-5.6124,-5.6164,-5.6209,-5.6213,-5.6165,-5.6159,-5.6247,-5.6257,-5.6268,-5.6406,-5.629,-5.6296,-5.63,-5.6598,-5.6603,-5.6607,0,0,0,0,0,0,-5.5983,-5.6002,-5.6157,-5.6084,-5.6103,-5.6121,-5.6167,-5.6168,-5.6195,-5.6218,-5.622,-5.6189,-5.6244,-5.6258,-5.635,-5.6408,-5.6299,-5.6306,-5.6593,-5.6599,-5.6605,-5.6683,0,0,0,0,0,0,-5.5977,-5.6001,-5.6045,-5.6085,-5.6107,-5.624,-5.617,-5.6172,-5.6207,-5.6201,-5.6241,-5.6245,-5.6243,-5.634,-5.6357,-5.6416,-5.6311,-5.6588,-5.6596,-5.6603,-5.6675,-5.6691,-5.6704,0,0,0,0,0,-5.5969,-5.6062,-5.6048,-5.6067,-5.6163,-5.6243,-5.6255,-5.6253,-5.6212,-5.6256,-5.6272,-5.6243,-5.6399,-5.635,-5.6368,-5.643,-5.6584,-5.6594,-5.6602,-5.6668,-5.6687,-5.6704,0,0,0,0,0,0,-5.6025,-5.6067,-5.6052,-5.616,-5.6199,-5.6235,-5.6291,-5.6273,-5.6322,-5.6314,-5.6307,-5.6316,-5.6413,-5.643,-5.6375,-5.6544,-5.6485,-5.6498,-5.6529,-5.6547,-5.6562,-5.6555,-5.6317,0,0,0,0,0,-5.6051,-5.6114,-5.6146,-5.6238,-5.6259,-5.6272,-5.6307,-5.6302,-5.6341,-5.6356,-5.6378,-5.6416,-5.6473,-5.6511,-5.6565,-5.6677,-5.6686,-5.6728,-5.6743,-5.6755,-5.6766,-5.6828,-5.6848,-5.6637,-5.6637,-5.6637,0,0,-5.6103,-5.6133,-5.6173,-5.6251,-5.628,-5.6345,-5.6286,-5.6356,-5.6404,-5.6366,-5.6456,-5.6473,-5.6514,-5.6618,-5.6664,-5.6635,-5.6827,-5.6766,-5.6776,-5.6781,-5.684,-5.686,-5.6878,-5.6643,-5.6642,-5.6641,0,0,-5.6231,-5.6261,-5.6342,-5.6374,-5.642,-5.6428,-5.6448,-5.6488,-5.6499,-5.6589,-5.6563,-5.6618,-5.6717,-5.6749,-5.6777,-5.6921,-5.6897,-5.6938,-5.7014,-5.7075,-5.7091,-5.7106,-5.7158,-5.7177,-5.6949,-5.695,-5.695,0,-5.629,-5.6388,-5.6385,-5.6459,-5.6494,-5.6466,-5.6548,-5.6578,-5.6639,-5.6663,-5.663,-5.6756,-5.6781,-5.6892,-5.6928,-5.6952,-5.6974,-5.6934,-5.7089,-5.7104,-5.7118,-5.7168,-5.7187,-5.6954,-5.6954,-5.6953,-5.6953,0,-5.6458,-5.6527,-5.6587,-5.665,-5.6691,-5.6768,-5.6777,-5.6819,-5.6811,-5.6823,-5.6915,-5.6945,-5.7006,-5.7032,-5.7023,-5.7142,-5.7123,-5.709,-5.7031,-5.7143,-5.719,-5.7208,-5.6961,-5.696,-5.6958,-5.6957,0,0,-5.6623,-5.6686,-5.6708,-5.6737,-5.6787,-5.684,-5.6916,-5.6977,-5.7014,-5.7057,-5.7121,-5.7207,-5.7177,-5.721,-5.7205,-5.7258,-5.7371,-5.7219,-5.7219,-5.7247,-5.7506,-5.7531,-5.7553,-5.7356,-5.7359,-5.7362,-5.7503,0,-5.6756,-5.6892,-5.6893,-5.7018,-5.7082,-5.7056,-5.7123,-5.716,-5.7173,-5.7228,-5.7242,-5.7303,-5.7259,-5.7279,-5.7331,-5.7347,-5.7423,-5.7336,-5.7415,-5.7417,-5.7406,-5.7577,-5.7604,-5.7735,-5.7521,-5.7524,-5.7526,0,-5.6929,-5.6982,-5.7114,-5.7157,-5.7184,-5.7244,-5.7301,-5.7354,-5.7396,-5.7402,-5.7441,-5.7428,-5.7504,-5.7443,-5.7549,-5.749,-5.7522,-5.7535,-5.754,-5.7548,-5.7479,-5.7591,-5.7777,-5.7797,-5.7555,-5.7552,-5.755,0,-5.7039,-5.7141,-5.7234,-5.726,-5.7312,-5.7355,-5.7378,-5.7417,-5.7455,-5.7504,-5.7529,-5.7586,-5.7617,-5.7661,-5.7664,-5.7619,-5.7771,-5.771,-5.7778,-5.7778,-5.7812,-5.781,-5.8007,-5.7831,-5.7831,-5.783,-5.783,0,-5.7188,-5.7269,-5.7285,-5.7342,-5.7433,-5.7433,-5.7522,-5.7542,-5.7577,-5.7637,-5.7617,-5.7673,-5.7673,-5.773,-5.7732,-5.782,-5.7834,-5.7841,-5.784,-5.7843,-5.7843,-5.7864,-5.7856,-5.7835,-5.7834,-5.7833,-5.7832,0,-5.7325,-5.7338,-5.7438,-5.748,-5.7493,-5.7558,-5.7594,-5.7648,-5.766,-5.7736,-5.7754,-5.7772,-5.7839,-5.7846,-5.7922,-5.7924,-5.8031,-5.802,-5.8017,-5.8016,-5.8084,-5.8078,-5.8303,-5.8333,-5.8137,-5.8139,-5.814,0,-5.7419,-5.7482,-5.7533,-5.7573,-5.7599,-5.7663,-5.7703,-5.7705,-5.7746,-5.7801,-5.7848,-5.7913,-5.7965,-5.8072,-5.8092,-5.815,-5.8142,-5.8216,-5.815,-5.8152,-5.8144,-5.8141,-5.8148,-5.8229,-5.8231,-5.8233,-5.8234,0,-5.7586,-5.7591,-5.7649,-5.7711,-5.776,-5.7808,-5.7853,-5.7886,-5.7894,-5.7941,-5.8011,-5.8051,-5.8131,-5.8196,-5.8254,-5.8276,-5.8257,-5.8255,-5.8274,-5.8278,-5.8275,-5.8279,-5.8054,-5.825,-5.8249,-5.8247,-5.8247,-5.8246,-5.7706,-5.7762,-5.7807,-5.7873,-5.7908,-5.7951,-5.8005,-5.8025,-5.8084,-5.8151,-5.8148,-5.8224,-5.8265,-5.8342,-5.8369,-5.8428,-5.8403,-5.843,-5.8437,-5.8444,-5.8452,-5.8265,-5.8438,-5.8438,-5.8437,-5.8437,-5.8437,0,-5.7873,-5.7901,-5.7963,-5.8028,-5.8081,-5.806,-5.811,-5.8154,-5.8223,-5.8264,-5.8317,-5.8397,-5.846,-5.8486,-5.8547,-5.859,-5.8583,-5.8606,-5.8603,-5.8609,-5.847,-5.8448,-5.8611,-5.8611,-5.8611,-5.8611,-5.8611,-5.8611,-5.7966,-5.806,-5.807,-5.8181,-5.8208,-5.8285,-5.8316,-5.8355,-5.8388,-5.848,-5.8533,-5.855,-5.8585,-5.865,-5.8707,-5.8713,-5.8737,-5.8764,-5.8766,-5.8636,-5.8619,-5.8602,-5.8581,-5.8769,-5.8769,-5.89,-5.8901,-5.8902]}]]